Location: Bazinghen
(50.8246°N, 1.6616°E)
Time: 23:27:42
(UTC+00:00)

Cosmos 2228 - Pass Details

Date: 09 April 2020
Orbit: 588 x 619 km, 82.5° (Epoch: 04 June)

Event Time Altitude Azimuth Distance (km) Brightness Sun altitude
Rises 19:07:16 0° 177° (S) 2,839 6.2 -5.0°
Reaches altitude 10° 19:09:29 10° 173° (S) 1,946 5.4 -5.3°
Maximum altitude 19:13:42 56° 95° (E) 727 3.1 -6.0°
Drops below altitude 10° 19:17:59 10° 18° (NNE) 1,981 5.7 -6.6°
Sets 19:20:15 0° 14° (NNE) 2,896 6.6 -6.9°
